[[{"header":{"parameterUnit":"m.s-1","parameterCategory":1,"la1":30.2991,"la2":30.254,"lo1":-89.0895,"lo2":-89.0444,"dy":0.0017,"dx":0.0017,"nx":28,"ny":28,"refTime":"2023-09-01T03:00:00:Z","depth":0,"parameterNumber":2,"parameterNumberName":"U-component_of_WINDS"},"data":[0,0,0,0,0,0,0,0,0,0,0,0,0,0,0,0,0,0,0,0,0,0,0,0,0,0,0,0,0,0,0,0,0,0,0,0,0,0,0,0,0,0,0,0,0,0,0,0,0,0,0,0,0,0,0,0,0,0,-1.149,-1.1491,0,-1.1607,-1.1608,-1.161,-1.1669,-1.1669,-1.1669,-1.1669,-1.179,-1.1793,-1.1797,0,0,0,0,0,0,0,0,0,0,0,0,0,-1.1318,-1.1321,-1.1489,-1.1491,-1.1492,-1.1607,-1.1608,-1.161,-1.1669,-1.1669,-1.1669,-1.1669,-1.1789,-1.1793,-1.1797,0,0,0,0,0,0,0,0,0,0,0,0,0,-1.141,-1.1322,-1.1489,-1.1535,-1.1541,-1.1606,-1.1608,-1.161,-1.1669,-1.1669,-1.1669,-1.1669,-1.1788,-1.1793,-1.1797,-1.1826,0,0,-1.1812,-1.1814,0,0,0,0,0,0,0,0,-1.1404,-1.1416,-1.1527,-1.1532,-1.1538,-1.1623,-1.1593,-1.1683,-1.1669,-1.162,-1.1669,-1.1669,-1.1735,-1.1744,-1.1766,-1.1832,-1.1837,-1.1813,-1.1815,-1.1817,-1.1819,0,0,0,0,0,0,0,-1.1398,-1.1411,-1.1536,-1.1529,-1.1536,-1.1551,-1.1564,-1.161,-1.1676,-1.1624,-1.1629,-1.1642,-1.1738,-1.1761,-1.1769,-1.1839,-1.1812,-1.1817,-1.182,-1.1822,-1.1936,-1.1936,0,0,0,0,0,0,-1.1384,-1.1405,-1.1532,-1.154,-1.147,-1.1554,-1.1569,-1.1596,-1.1675,-1.1688,-1.1642,-1.1644,-1.1753,-1.1763,-1.1774,-1.1814,-1.1817,-1.1822,-1.1825,-1.1936,-1.1936,-1.1936,0,0,0,0,0,0,-1.138,-1.1395,-1.1528,-1.1474,-1.1492,-1.1557,-1.1587,-1.1598,-1.1622,-1.1689,-1.1701,-1.1653,-1.1753,-1.1767,-1.1813,-1.1819,-1.1824,-1.1829,-1.1936,-1.1936,-1.1936,-1.1893,0,0,0,0,0,0,-1.1375,-1.1393,-1.1404,-1.1474,-1.1494,-1.1564,-1.1588,-1.1601,-1.163,-1.1634,-1.1703,-1.1714,-1.1754,-1.1805,-1.1818,-1.1825,-1.1832,-1.1936,-1.1936,-1.1936,-1.1894,-1.1892,-1.189,0,0,0,0,0,-1.1368,-1.1387,-1.1404,-1.1419,-1.151,-1.1564,-1.1576,-1.1622,-1.163,-1.1642,-1.1685,-1.1712,-1.1816,-1.181,-1.1824,-1.1833,-1.1936,-1.1936,-1.1936,-1.1895,-1.1892,-1.189,0,0,0,0,0,0,-1.1317,-1.1397,-1.1417,-1.1459,-1.1504,-1.1574,-1.1591,-1.1617,-1.1662,-1.1664,-1.1719,-1.1734,-1.1775,-1.1809,-1.1801,-1.1866,-1.1879,-1.1882,-1.1842,-1.184,-1.1838,-1.1829,-1.1836,0,0,0,0,0,-1.131,-1.1347,-1.1416,-1.1446,-1.1468,-1.1525,-1.1551,-1.1582,-1.1631,-1.1651,-1.1698,-1.1745,-1.1789,-1.1816,-1.186,-1.1899,-1.1916,-1.1913,-1.1911,-1.1908,-1.1911,-1.1935,-1.1935,-1.1938,-1.1938,-1.1938,0,0,-1.1297,-1.1345,-1.1365,-1.1437,-1.1476,-1.1514,-1.1541,-1.158,-1.1609,-1.1657,-1.1704,-1.1739,-1.1796,-1.1839,-1.1861,-1.1869,-1.1913,-1.1909,-1.1906,-1.191,-1.1935,-1.1935,-1.1935,-1.1938,-1.1938,-1.1938,0,0,-1.1292,-1.1332,-1.1362,-1.1401,-1.146,-1.1498,-1.1505,-1.1571,-1.1597,-1.1644,-1.1682,-1.1717,-1.1791,-1.183,-1.186,-1.1871,-1.1897,-1.1883,-1.1871,-1.1895,-1.1894,-1.1894,-1.1899,-1.19,-1.1885,-1.1885,-1.1885,0,-1.1269,-1.1327,-1.1374,-1.1411,-1.1442,-1.1488,-1.1519,-1.1554,-1.1624,-1.1644,-1.1652,-1.1746,-1.1788,-1.1841,-1.1844,-1.1866,-1.1876,-1.1876,-1.189,-1.1891,-1.1892,-1.1897,-1.1898,-1.1883,-1.1884,-1.1884,-1.1884,0,-1.1295,-1.1335,-1.1352,-1.1418,-1.1451,-1.1484,-1.1538,-1.1566,-1.1594,-1.1632,-1.168,-1.1731,-1.1787,-1.1802,-1.183,-1.1859,-1.1863,-1.188,-1.1893,-1.1889,-1.1894,-1.1897,-1.188,-1.1881,-1.1882,-1.1882,0,0,-1.1261,-1.1353,-1.1359,-1.139,-1.1458,-1.149,-1.1527,-1.158,-1.1603,-1.165,-1.1683,-1.1744,-1.1761,-1.1794,-1.1827,-1.1848,-1.1854,-1.1863,-1.1865,-1.186,-1.1891,-1.1878,-1.1879,-1.1872,-1.1873,-1.1873,-1.1886,0,-1.1266,-1.1332,-1.1377,-1.1426,-1.1464,-1.1509,-1.154,-1.1586,-1.1622,-1.166,-1.1701,-1.1744,-1.1762,-1.1783,-1.1805,-1.1848,-1.1861,-1.1848,-1.1904,-1.1905,-1.1888,-1.1882,-1.1868,-1.1878,-1.1889,-1.1889,-1.1889,0,-1.1281,-1.1326,-1.1379,-1.1444,-1.1462,-1.149,-1.1543,-1.1579,-1.1632,-1.1657,-1.1695,-1.1729,-1.177,-1.178,-1.1838,-1.1828,-1.1854,-1.1879,-1.188,-1.1887,-1.1897,-1.1889,-1.1882,-1.1884,-1.1893,-1.1893,-1.1893,0,-1.1251,-1.1326,-1.1367,-1.1392,-1.1469,-1.1488,-1.1521,-1.1574,-1.1604,-1.1651,-1.1671,-1.1722,-1.175,-1.1789,-1.1837,-1.184,-1.189,-1.1904,-1.1913,-1.1912,-1.1922,-1.1921,-1.1919,-1.1937,-1.1937,-1.1937,-1.1937,0,-1.1252,-1.1283,-1.1355,-1.138,-1.1417,-1.1468,-1.1503,-1.154,-1.1587,-1.1621,-1.1663,-1.1694,-1.1754,-1.1793,-1.1831,-1.1874,-1.1886,-1.1908,-1.1918,-1.1904,-1.1902,-1.1922,-1.1923,-1.1938,-1.1938,-1.1938,-1.1938,0,-1.1225,-1.1274,-1.1323,-1.1392,-1.141,-1.1433,-1.1493,-1.152,-1.1559,-1.1601,-1.1614,-1.1676,-1.1724,-1.1775,-1.184,-1.1866,-1.1907,-1.192,-1.1889,-1.1894,-1.1901,-1.1899,-1.1912,-1.1917,-1.1931,-1.1931,-1.1931,0,-1.1223,-1.1248,-1.1319,-1.1345,-1.1377,-1.1418,-1.1448,-1.15,-1.1531,-1.1594,-1.1613,-1.1665,-1.1708,-1.1783,-1.1834,-1.1885,-1.19,-1.1901,-1.1908,-1.1894,-1.1901,-1.1899,-1.1902,-1.1899,-1.1898,-1.1898,-1.1898,0,-1.1214,-1.1237,-1.1279,-1.1331,-1.1366,-1.1409,-1.1453,-1.1472,-1.1533,-1.1565,-1.1615,-1.1649,-1.1716,-1.1767,-1.1824,-1.1859,-1.1889,-1.1895,-1.19,-1.1887,-1.1868,-1.1879,-1.1883,-1.1895,-1.1895,-1.1895,-1.1895,-1.1895,-1.12,-1.1224,-1.1278,-1.1324,-1.1363,-1.1404,-1.1433,-1.1476,-1.1518,-1.1576,-1.1604,-1.1654,-1.1708,-1.1788,-1.1822,-1.1863,-1.1871,-1.1878,-1.188,-1.1881,-1.1878,-1.1861,-1.1873,-1.1873,-1.1873,-1.1874,-1.1874,0,-1.1193,-1.123,-1.1272,-1.1333,-1.137,-1.1394,-1.1445,-1.1474,-1.1517,-1.1565,-1.1607,-1.1665,-1.1714,-1.1769,-1.1822,-1.1844,-1.1859,-1.1857,-1.1856,-1.1864,-1.1867,-1.1857,-1.1843,-1.1843,-1.1843,-1.1843,-1.1843,-1.1843,-1.1194,-1.1237,-1.1266,-1.1329,-1.1367,-1.1415,-1.1443,-1.1481,-1.1519,-1.1581,-1.1623,-1.1658,-1.1709,-1.1767,-1.1814,-1.1829,-1.1847,-1.184,-1.1859,-1.1861,-1.1863,-1.1865,-1.1857,-1.1843,-1.1843,-1.1852,-1.1853,-1.1853]},{"header":{"parameterUnit":"m.s-1","parameterCategory":1,"la1":30.2991,"la2":30.254,"lo1":-89.0895,"lo2":-89.0444,"dy":0.0017,"dx":0.0017,"nx":28,"ny":28,"refTime":"2023-09-01T03:00:00:Z","depth":0,"parameterNumber":3,"parameterNumberName":"V-component_of_WINDS"},"data":[0,0,0,0,0,0,0,0,0,0,0,0,0,0,0,0,0,0,0,0,0,0,0,0,0,0,0,0,0,0,0,0,0,0,0,0,0,0,0,0,0,0,0,0,0,0,0,0,0,0,0,0,0,0,0,0,0,0,3.3745,3.3746,0,3.3844,3.3845,3.3846,3.3808,3.3806,3.3804,3.3802,3.3899,3.3904,3.3908,0,0,0,0,0,0,0,0,0,0,0,0,0,3.3522,3.3527,3.3745,3.3747,3.3748,3.3843,3.3845,3.3846,3.3809,3.3806,3.3803,3.3801,3.3898,3.3903,3.3909,0,0,0,0,0,0,0,0,0,0,0,0,0,3.362,3.3528,3.3745,3.3741,3.3741,3.3843,3.3845,3.3846,3.3809,3.3806,3.3803,3.38,3.3896,3.3902,3.3909,3.402,0,0,3.3931,3.3934,0,0,0,0,0,0,0,0,3.3614,3.3628,3.374,3.3741,3.3742,3.381,3.3802,3.3905,3.381,3.3784,3.3802,3.3798,3.3872,3.3881,3.3907,3.4025,3.4029,3.3932,3.3936,3.3939,3.3941,0,0,0,0,0,0,0,3.3608,3.3623,3.3784,3.3742,3.3743,3.3733,3.3743,3.3821,3.3845,3.3786,3.3783,3.3795,3.3872,3.39,3.3909,3.403,3.3931,3.3938,3.3942,3.3945,3.4244,3.4248,0,0,0,0,0,0,3.3601,3.3618,3.3781,3.3787,3.3669,3.374,3.3751,3.3792,3.3844,3.3849,3.3798,3.3793,3.389,3.39,3.3912,3.4044,3.3939,3.3945,3.3949,3.424,3.4245,3.4249,0,0,0,0,0,0,3.3596,3.3616,3.3777,3.3702,3.3722,3.3747,3.3793,3.3796,3.3823,3.3854,3.3858,3.3823,3.3887,3.3902,3.3994,3.4047,3.3948,3.3955,3.4236,3.4242,3.4247,3.431,0,0,0,0,0,0,3.359,3.3614,3.3657,3.3703,3.3726,3.3858,3.3797,3.38,3.3836,3.3831,3.3878,3.3882,3.3886,3.3983,3.4001,3.4055,3.396,3.4231,3.4238,3.4245,3.4304,3.4318,3.4329,0,0,0,0,0,3.3582,3.3671,3.366,3.368,3.378,3.3861,3.3874,3.3877,3.3841,3.3883,3.3903,3.3881,3.4039,3.3993,3.4012,3.4069,3.4228,3.4236,3.4244,3.4298,3.4315,3.4329,0,0,0,0,0,0,3.3629,3.3677,3.3665,3.3771,3.3813,3.3855,3.3909,3.3895,3.3947,3.394,3.394,3.3951,3.4046,3.4067,3.4015,3.4179,3.4128,3.414,3.4162,3.4178,3.4191,3.4183,3.3966,0,0,0,0,0,3.3652,3.3715,3.3753,3.3843,3.3864,3.3883,3.3919,3.3918,3.396,3.3977,3.4004,3.4045,3.4104,3.4142,3.4198,3.4307,3.4316,3.4356,3.4369,3.4379,3.439,3.4448,3.4466,3.4276,3.4276,3.4276,0,0,3.3699,3.3733,3.3772,3.3853,3.3885,3.3949,3.3898,3.3968,3.4015,3.3987,3.4076,3.4097,3.4143,3.4244,3.4289,3.4264,3.4445,3.439,3.4398,3.4403,3.4459,3.4477,3.4493,3.4282,3.4281,3.428,0,0,3.3818,3.3851,3.3929,3.3962,3.4012,3.4024,3.4043,3.4088,3.4101,3.4191,3.4171,3.4227,3.4329,3.4362,3.4392,3.4525,3.4506,3.4544,3.461,3.4667,3.4682,3.4695,3.4742,3.4758,3.4554,3.4554,3.4554,0,3.387,3.3967,3.397,3.4042,3.4078,3.4057,3.4136,3.4168,3.4233,3.4258,3.4229,3.4357,3.4386,3.4494,3.4527,3.4553,3.4573,3.4537,3.468,3.4693,3.4706,3.475,3.4767,3.4558,3.4558,3.4558,3.4557,0,3.4028,3.4095,3.4152,3.4217,3.4259,3.4334,3.4348,3.439,3.4386,3.4401,3.4492,3.4527,3.459,3.4616,3.4612,3.4723,3.4706,3.4679,3.4627,3.4728,3.4769,3.4786,3.4564,3.4563,3.4562,3.4561,0,0,3.4177,3.4244,3.4264,3.4293,3.4347,3.4399,3.4473,3.4535,3.4571,3.4617,3.4678,3.4765,3.4741,3.4775,3.4775,3.4826,3.4928,3.4792,3.4793,3.4815,3.5052,3.5071,3.509,3.4916,3.492,3.4922,3.5047,0,3.4299,3.4429,3.4435,3.4554,3.4615,3.4597,3.4662,3.4701,3.4718,3.4772,3.4789,3.4851,3.4815,3.4835,3.4885,3.4905,3.4975,3.4896,3.4972,3.4974,3.4959,3.5112,3.5132,3.5249,3.5064,3.5066,3.5068,0,3.4458,3.451,3.4635,3.468,3.4706,3.4764,3.4822,3.4874,3.4918,3.4927,3.4966,3.4959,3.5034,3.4981,3.5083,3.503,3.5061,3.5076,3.5081,3.5086,3.5026,3.512,3.5286,3.5303,3.5094,3.5092,3.509,0,3.4553,3.4654,3.4742,3.4767,3.4823,3.4863,3.4888,3.4929,3.4967,3.5017,3.5041,3.5099,3.5131,3.5176,3.5184,3.5145,3.5287,3.5235,3.5295,3.5295,3.5324,3.5321,3.5495,3.5347,3.5347,3.5346,3.5346,0,3.4687,3.4764,3.4785,3.4839,3.4924,3.493,3.5014,3.5036,3.5073,3.513,3.5118,3.5172,3.5181,3.5236,3.5244,3.5327,3.5341,3.5349,3.535,3.535,3.5349,3.5369,3.5361,3.5351,3.535,3.5349,3.5348,0,3.4807,3.4824,3.4918,3.4963,3.4977,3.5037,3.5075,3.5126,3.5142,3.5215,3.5232,3.5256,3.5321,3.5335,3.5411,3.5416,3.5515,3.5508,3.55,3.5499,3.5558,3.5552,3.5749,3.5775,3.5612,3.5613,3.5614,0,3.4891,3.4949,3.5001,3.5039,3.5066,3.5127,3.5165,3.5174,3.5214,3.527,3.5314,3.5378,3.5429,3.5533,3.5557,3.5616,3.561,3.5675,3.5618,3.5616,3.5609,3.5605,3.561,3.5685,3.5687,3.5688,3.569,0,3.5038,3.5043,3.5099,3.5159,3.5205,3.5252,3.5297,3.5328,3.5343,3.5388,3.5455,3.5495,3.5574,3.5637,3.5696,3.572,3.5707,3.5708,3.5724,3.5724,3.5716,3.572,3.5528,3.5703,3.5701,3.57,3.57,3.5699,3.5141,3.5192,3.5237,3.5299,3.5334,3.5376,3.5427,3.5449,3.5505,3.557,3.5572,3.5645,3.5688,3.5766,3.5794,3.5851,3.583,3.5855,3.5861,3.5866,3.5871,3.5709,3.5861,3.5861,3.5861,3.5861,3.586,0,3.5286,3.5314,3.5372,3.5435,3.5485,3.547,3.5519,3.556,3.5625,3.5667,3.5718,3.5794,3.5856,3.5885,3.5946,3.5985,3.5981,3.6001,3.5997,3.6003,3.5886,3.5865,3.6004,3.6004,3.6003,3.6003,3.6003,3.6003,3.5367,3.5453,3.5464,3.5567,3.5594,3.5666,3.5695,3.5733,3.5767,3.5853,3.5904,3.5924,3.5961,3.6024,3.608,3.6087,3.6109,3.6132,3.6136,3.6026,3.6011,3.5997,3.5977,3.6137,3.6137,3.6247,3.6248,3.6249]}]]